Weather History for KDLN - January, 2014

Change the Weather History Date:

Wednesday, January 15, 2014

  Actual Average Record
Temperature  
Mean Temperature 38 °F 23 °F  
Max Temperature 47 °F 32 °F 54 °F (1974)
Min Temperature 28 °F 13 °F -24 °F (1930)
Degree Days  
Heating Degree Days 27    
Month to date heating degree days 533  
Since 1 July heating degree days 3863  
Cooling Degree Days 0    
Month to date cooling degree days 0  
Year to date cooling degree days 0  
Moisture  
Dew Point 12 °F    
Average Humidity 36    
Maximum Humidity 53    
Minimum Humidity 19    
Precipitation  
Precipitation 0.00 in 0.01 in 0.22 in (1952)
Month to date precipitation 0.02 0.14  
Year to date precipitation 0.02 0.14  
Snow  
Snow 0.00 in - - ()
Snow Depth 0.00 in    
Sea Level Pressure  
Sea Level Pressure 30.38 in    
Wind  
Wind Speed 16 mph (SSW)    
Max Wind Speed 26 mph    
Max Gust Speed 36 mph    
Visibility 10 miles    
Events      
T = Trace of Precipitation, MM = Missing Value Source: NWS Daily Summary

Daily Weather History Graph

Daily Weather History Graph

Search for Another Location

Airport or City:

Trip Planner

Search our weather history database for the weather conditions in past years. The results will help you decide how hot, cold, wet, or windy it might be!

Date:

Astronomy

Jan. 15, 2014 Rise Set
Actual Time 8:05 AM MST 5:14 PM MST
Civil Twilight 7:32 AM MST 5:47 PM MST
Nautical Twilight 6:56 AM MST 6:23 PM MST
Astronomical Twilight 6:20 AM MST 6:58 PM MST
Moon 5:18 PM MST (1/15) 7:21 AM MST (1/15)
Length of Visible Light 10h 14m
Length of Day
9h 08m
Full, 100% of the Moon is Illuminated
Jan 15
Full
Jan 15
Full
Jan 23
Last Quarter
Jan 30
New
Feb 6
First Quarter

Hourly Weather History & Observations

Time (MST) Temp. Windchill Dew Point Humidity Pressure Visibility Wind Dir Wind Speed Gust Speed Precip Events Conditions
12:53 AM 37.0 °F 26.2 °F 12.9 °F 37% 30.38 in 10.0 mi SW 21.9 mph 31.1 mph N/A   Clear
1:53 AM 36.0 °F 25.0 °F 15.1 °F 43% 30.37 in 10.0 mi SW 20.7 mph - N/A   Clear
2:53 AM 36.0 °F 25.6 °F 12.9 °F 39% 30.38 in 10.0 mi SSW 18.4 mph - N/A   Clear
3:53 AM 34.0 °F 24.2 °F 12.0 °F 40% 30.38 in 10.0 mi SSW 15.0 mph - N/A   Clear
4:53 AM 34.0 °F 23.0 °F 12.0 °F 40% 30.39 in 10.0 mi South 18.4 mph - N/A   Clear
5:53 AM 32.0 °F 20.1 °F 12.9 °F 45% 30.39 in 10.0 mi SW 19.6 mph - N/A   Clear
6:53 AM 33.1 °F 22.2 °F 12.0 °F 42% 30.41 in 10.0 mi SW 17.3 mph - N/A   Clear
7:53 AM 33.1 °F 21.5 °F 12.9 °F 43% 30.43 in 10.0 mi SSW 19.6 mph - N/A   Clear
8:53 AM 34.0 °F 23.0 °F 12.0 °F 40% 30.42 in 10.0 mi SSW 18.4 mph 24.2 mph N/A   Clear
9:53 AM 37.0 °F 27.7 °F 10.9 °F 34% 30.42 in 10.0 mi SSW 16.1 mph - N/A   Clear
10:53 AM 41.0 °F 34.3 °F 10.0 °F 28% 30.40 in 10.0 mi SSW 11.5 mph - N/A   Clear
11:53 AM 41.0 °F 32.2 °F 10.9 °F 29% 30.37 in 10.0 mi SSW 18.4 mph - N/A   Clear
12:53 PM 44.1 °F 35.9 °F 8.1 °F 23% 30.33 in 10.0 mi SW 19.6 mph - N/A   Clear
1:53 PM 45.0 °F 36.9 °F 8.1 °F 22% 30.30 in 10.0 mi WSW 20.7 mph 32.2 mph N/A   Clear
2:53 PM 46.0 °F 39.0 °F 7.0 °F 20% 30.28 in 10.0 mi WSW 17.3 mph 32.2 mph N/A   Clear
3:53 PM 46.9 °F - 9.0 °F 21% 30.30 in 10.0 mi West 20.7 mph 25.3 mph N/A   Clear
4:53 PM 42.1 °F 35.7 °F 10.0 °F 27% 30.34 in 10.0 mi WSW 11.5 mph - N/A   Clear
5:53 PM 37.9 °F 30.0 °F 12.0 °F 35% 30.38 in 10.0 mi SW 12.7 mph - N/A   Clear
6:53 PM 35.1 °F 27.4 °F 12.9 °F 40% 30.39 in 10.0 mi SW 10.4 mph - N/A   Clear
7:53 PM 36.0 °F 28.0 °F 14.0 °F 41% 30.39 in 10.0 mi SSW 11.5 mph - N/A   Clear
8:53 PM 34.0 °F 31.0 °F 14.0 °F 44% 30.40 in 10.0 mi ESE 3.5 mph - N/A   Clear
9:53 PM 30.0 °F 21.1 °F 15.1 °F 54% 30.40 in 10.0 mi SSE 10.4 mph - N/A   Clear
10:53 PM 35.1 °F 26.9 °F 14.0 °F 42% 30.38 in 10.0 mi South 11.5 mph - N/A   Clear
11:53 PM 30.9 °F 22.8 °F 12.9 °F 47% 30.40 in 10.0 mi South 9.2 mph - N/A   Clear